Terug naar catalogus

KUIPER-00534

ActiefCommunicatieVLEO
NORAD 69606·PAYLOAD·🇺🇸 United States

Gelanceerd Jun 17, 2026 vanaf Guiana Space Centre

Loading…

Volgende Passages (komende 24 uur)

TLE

VersSource: CelesTrak SupGP

Epoch: Sep 14, 2026, 21:40 UTC

1 69606C 26140Q   26257.90280093 -.00040832  00000+0 -13404-2 0  2572
2 69606  51.8808 325.7356 0013697 115.5247 275.2257 15.30953201    11

Volg KUIPER-00534 in realtime met AllMySat

Download on the App Store